Time,TemperatureF,DewpointF,PressureIn,WindDirection,WindDirectionDegrees,WindSpeedMPH,WindSpeedGustMPH,Humidity,HourlyPrecipIn,Conditions,Clouds,dailyrainin,SoftwareType,DateUTC
2017-04-23 00:04:00,41.4,39.6,-100.00,WNW,284,0.0,0.0,93,0.00,,,0.02,meteohub,2017-04-23 04:04:00,
2017-04-23 00:09:00,41.4,39.6,-100.00,WNW,284,0.0,0.0,93,0.00,,,0.00,meteohub,2017-04-23 04:09:00,
2017-04-23 00:14:00,41.4,39.6,-100.00,WNW,284,0.0,0.0,93,0.00,,,0.00,meteohub,2017-04-23 04:14:00,
2017-04-23 00:20:00,41.2,39.4,-100.00,WNW,285,0.0,0.0,93,0.00,,,0.00,meteohub,2017-04-23 04:20:00,
2017-04-23 00:25:00,41.2,39.6,-100.00,WNW,285,0.0,0.0,94,0.00,,,0.00,meteohub,2017-04-23 04:25:00,
2017-04-23 00:30:00,41.2,39.6,-100.00,WNW,285,0.0,0.0,94,0.00,,,0.00,meteohub,2017-04-23 04:30:00,
2017-04-23 00:35:00,41.2,39.6,-100.00,WNW,285,0.0,0.0,94,0.00,,,0.00,meteohub,2017-04-23 04:35:00,
2017-04-23 00:40:00,41.2,39.6,-100.00,WNW,285,0.0,0.0,94,0.00,,,0.00,meteohub,2017-04-23 04:40:00,
2017-04-23 00:45:00,41.2,39.6,-100.00,WNW,285,0.0,0.0,94,0.00,,,0.00,meteohub,2017-04-23 04:45:00,
2017-04-23 00:51:00,41.2,39.6,-100.00,WNW,285,0.0,0.0,94,0.00,,,0.00,meteohub,2017-04-23 04:51:00,
2017-04-23 00:56:00,41.0,39.4,-100.00,WNW,285,0.0,0.0,94,0.00,,,0.00,meteohub,2017-04-23 04:56:00,
2017-04-23 01:01:00,40.8,39.2,-100.00,WNW,285,0.0,0.0,94,0.00,,,0.00,meteohub,2017-04-23 05:01:00,
2017-04-23 01:06:00,40.8,39.2,-100.00,WNW,285,0.0,0.0,94,0.00,,,0.00,meteohub,2017-04-23 05:06:00,
2017-04-23 01:11:00,40.8,39.2,-100.00,WNW,285,0.0,0.0,94,0.00,,,0.00,meteohub,2017-04-23 05:11:00,
2017-04-23 01:16:00,40.8,39.2,-100.00,WNW,285,0.0,0.0,94,0.00,,,0.00,meteohub,2017-04-23 05:16:00,
2017-04-23 01:21:00,40.8,39.2,-100.00,WNW,285,0.0,0.0,94,0.00,,,0.00,meteohub,2017-04-23 05:21:00,
2017-04-23 01:27:00,40.8,39.2,-100.00,WNW,285,0.0,0.0,94,0.00,,,0.00,meteohub,2017-04-23 05:27:00,
2017-04-23 01:32:00,40.8,39.2,-100.00,WNW,285,0.0,0.0,94,0.00,,,0.00,meteohub,2017-04-23 05:32:00,
2017-04-23 01:37:00,40.8,39.2,-100.00,WNW,285,0.0,1.0,94,0.00,,,0.00,meteohub,2017-04-23 05:37:00,
2017-04-23 01:42:00,40.6,39.0,-100.00,WNW,285,0.0,1.0,94,0.00,,,0.00,meteohub,2017-04-23 05:42:00,
2017-04-23 01:47:00,40.6,39.0,-100.00,WNW,286,0.0,0.0,94,0.00,,,0.00,meteohub,2017-04-23 05:47:00,
2017-04-23 01:52:00,40.6,39.0,-100.00,WNW,285,0.0,0.0,94,0.00,,,0.00,meteohub,2017-04-23 05:52:00,
2017-04-23 01:57:00,40.6,39.0,-100.00,WNW,285,0.0,0.0,94,0.00,,,0.00,meteohub,2017-04-23 05:57:00,
2017-04-23 02:02:00,40.6,39.0,-100.00,WNW,285,0.0,0.0,94,0.00,,,0.00,meteohub,2017-04-23 06:02:00,
2017-04-23 02:07:00,40.6,39.0,-100.00,WNW,285,0.0,0.0,94,0.00,,,0.00,meteohub,2017-04-23 06:07:00,
2017-04-23 02:12:00,40.5,38.8,-100.00,WNW,285,0.0,0.0,94,0.00,,,0.00,meteohub,2017-04-23 06:12:00,
2017-04-23 02:17:00,40.5,38.8,-100.00,WNW,285,0.0,0.0,94,0.00,,,0.00,meteohub,2017-04-23 06:17:00,
2017-04-23 02:22:00,40.5,38.8,-100.00,WNW,285,0.0,0.0,94,0.00,,,0.00,meteohub,2017-04-23 06:22:00,
2017-04-23 02:27:00,40.5,38.8,-100.00,WNW,285,0.0,0.0,94,0.00,,,0.00,meteohub,2017-04-23 06:27:00,
2017-04-23 02:32:00,40.5,38.8,-100.00,WNW,285,0.0,0.0,94,0.00,,,0.00,meteohub,2017-04-23 06:32:00,
2017-04-23 02:37:00,40.5,38.8,-100.00,WNW,285,0.0,0.0,94,0.00,,,0.00,meteohub,2017-04-23 06:37:00,
2017-04-23 02:42:00,40.6,39.0,-100.00,WNW,285,0.0,0.0,94,0.00,,,0.00,meteohub,2017-04-23 06:42:00,
2017-04-23 02:47:00,40.5,38.8,-100.00,WNW,285,0.0,0.0,94,0.00,,,0.00,meteohub,2017-04-23 06:47:00,
2017-04-23 02:52:00,40.6,39.0,-100.00,WNW,285,0.0,0.0,94,0.00,,,0.00,meteohub,2017-04-23 06:52:00,
2017-04-23 02:57:00,40.6,39.0,-100.00,WNW,288,0.0,0.0,94,0.00,,,0.00,meteohub,2017-04-23 06:57:00,
2017-04-23 03:02:00,40.5,38.8,-100.00,WNW,289,0.0,0.0,94,0.00,,,0.00,meteohub,2017-04-23 07:02:00,
2017-04-23 03:07:00,40.5,38.8,-100.00,NNE,24,0.0,0.0,94,0.00,,,0.00,meteohub,2017-04-23 07:07:00,
2017-04-23 03:12:00,40.5,38.8,-100.00,NNE,24,0.0,0.0,94,0.00,,,0.00,meteohub,2017-04-23 07:12:00,
2017-04-23 03:17:00,40.5,38.8,-100.00,NNE,25,0.0,0.0,94,0.00,,,0.00,meteohub,2017-04-23 07:17:00,
2017-04-23 03:22:00,40.3,38.7,-100.00,NNE,24,0.0,0.0,94,0.00,,,0.00,meteohub,2017-04-23 07:22:00,
2017-04-23 03:27:00,40.1,38.5,-100.00,NNE,24,0.0,0.0,94,0.00,,,0.00,meteohub,2017-04-23 07:27:00,
2017-04-23 03:32:00,39.9,38.3,-100.00,NNE,25,0.0,0.0,94,0.00,,,0.00,meteohub,2017-04-23 07:32:00,
2017-04-23 03:37:00,39.9,38.3,-100.00,NNE,25,0.0,0.0,94,0.00,,,0.00,meteohub,2017-04-23 07:37:00,
2017-04-23 03:42:00,39.7,38.1,-100.00,NNE,25,0.0,0.0,94,0.00,,,0.00,meteohub,2017-04-23 07:42:00,
2017-04-23 03:47:00,39.7,38.1,-100.00,NNE,25,0.0,1.0,94,0.00,,,0.00,meteohub,2017-04-23 07:47:00,
2017-04-23 03:52:00,39.4,37.8,-100.00,East,97,0.0,1.0,94,0.00,,,0.00,meteohub,2017-04-23 07:52:00,
2017-04-23 03:57:00,39.2,37.6,-100.00,East,97,0.0,1.0,94,0.00,,,0.00,meteohub,2017-04-23 07:57:00,
2017-04-23 04:02:00,38.8,37.2,-100.00,East,98,0.0,1.0,94,0.00,,,0.00,meteohub,2017-04-23 08:02:00,
2017-04-23 04:03:00,38.8,37.2,-100.00,East,97,0.0,1.0,94,0.00,,,0.00,meteohub,2017-04-23 08:03:00,
2017-04-23 04:09:00,38.7,37.0,-100.00,East,97,0.0,1.0,94,0.00,,,0.00,meteohub,2017-04-23 08:09:00,
2017-04-23 04:14:00,38.5,36.9,-100.00,East,97,0.0,0.0,94,0.00,,,0.00,meteohub,2017-04-23 08:14:00,
2017-04-23 04:19:00,38.1,36.5,-100.00,East,98,0.0,0.0,94,0.00,,,0.00,meteohub,2017-04-23 08:19:00,
2017-04-23 04:24:00,37.8,36.1,-100.00,East,97,0.0,0.0,94,0.00,,,0.00,meteohub,2017-04-23 08:24:00,
2017-04-23 04:29:00,37.2,35.6,-100.00,East,97,0.0,0.0,94,0.00,,,0.00,meteohub,2017-04-23 08:29:00,
2017-04-23 04:34:00,36.9,35.2,-100.00,East,97,0.0,0.0,94,0.00,,,0.00,meteohub,2017-04-23 08:34:00,
2017-04-23 04:39:00,36.3,34.7,-100.00,East,97,0.0,0.0,94,0.00,,,0.00,meteohub,2017-04-23 08:39:00,
2017-04-23 04:45:00,36.1,34.9,-100.00,East,97,0.0,0.0,95,0.00,,,0.00,meteohub,2017-04-23 08:45:00,
2017-04-23 04:50:00,36.0,34.3,-100.00,East,97,0.0,0.0,94,0.00,,,0.00,meteohub,2017-04-23 08:50:00,
2017-04-23 04:55:00,36.0,34.7,-100.00,East,97,0.0,0.0,95,0.00,,,0.00,meteohub,2017-04-23 08:55:00,
2017-04-23 05:00:00,36.0,34.7,-100.00,East,98,0.0,0.0,95,0.00,,,0.00,meteohub,2017-04-23 09:00:00,
2017-04-23 05:05:00,35.6,34.3,-100.00,East,97,0.0,0.0,95,0.00,,,0.00,meteohub,2017-04-23 09:05:00,
2017-04-23 05:10:00,35.2,33.6,-100.00,East,98,0.0,0.0,94,0.00,,,0.00,meteohub,2017-04-23 09:10:00,
2017-04-23 05:16:00,35.1,33.4,-100.00,East,97,0.0,0.0,94,0.00,,,0.00,meteohub,2017-04-23 09:16:00,
2017-04-23 05:21:00,34.9,33.3,-100.00,East,97,0.0,0.0,94,0.00,,,0.00,meteohub,2017-04-23 09:21:00,
2017-04-23 05:26:00,34.5,32.9,-100.00,East,97,0.0,0.0,94,0.00,,,0.00,meteohub,2017-04-23 09:26:00,
2017-04-23 05:31:00,34.5,33.3,-100.00,East,97,0.0,0.0,95,0.00,,,0.00,meteohub,2017-04-23 09:31:00,
2017-04-23 05:36:00,34.5,33.3,-100.00,East,97,0.0,0.0,95,0.00,,,0.00,meteohub,2017-04-23 09:36:00,
2017-04-23 05:41:00,34.3,33.1,-100.00,East,97,0.0,0.0,95,0.00,,,0.00,meteohub,2017-04-23 09:41:00,
2017-04-23 05:46:00,34.2,32.9,-100.00,East,97,0.0,0.0,95,0.00,,,0.00,meteohub,2017-04-23 09:46:00,
2017-04-23 05:52:00,33.6,32.0,-100.00,East,98,0.0,0.0,94,0.00,,,0.00,meteohub,2017-04-23 09:52:00,
2017-04-23 05:57:00,33.6,32.4,-100.00,East,97,0.0,0.0,95,0.00,,,0.00,meteohub,2017-04-23 09:57:00,
2017-04-23 06:02:00,33.4,32.2,-100.00,East,98,0.0,0.0,95,0.00,,,0.00,meteohub,2017-04-23 10:02:00,
2017-04-23 06:07:00,33.4,32.2,-100.00,East,97,0.0,0.0,95,0.00,,,0.00,meteohub,2017-04-23 10:07:00,
2017-04-23 06:12:00,33.3,32.0,-100.00,East,97,0.0,0.0,95,0.00,,,0.00,meteohub,2017-04-23 10:12:00,
2017-04-23 06:17:00,33.3,32.0,-100.00,East,97,0.0,0.0,95,0.00,,,0.00,meteohub,2017-04-23 10:17:00,
2017-04-23 06:22:00,33.3,32.0,-100.00,East,83,1.0,1.0,95,0.00,,,0.00,meteohub,2017-04-23 10:22:00,
2017-04-23 06:27:00,33.3,32.0,-100.00,ESE,103,0.0,1.0,95,0.00,,,0.00,meteohub,2017-04-23 10:27:00,
2017-04-23 06:32:00,33.1,31.8,-100.00,ESE,102,0.0,1.0,95,0.00,,,0.00,meteohub,2017-04-23 10:32:00,
2017-04-23 06:37:00,33.3,32.0,-100.00,ESE,104,1.0,2.0,95,0.00,,,0.00,meteohub,2017-04-23 10:37:00,
2017-04-23 06:42:00,33.6,32.4,-100.00,ESE,108,1.0,2.0,95,0.00,,,0.00,meteohub,2017-04-23 10:42:00,
2017-04-23 06:47:00,34.2,32.9,-100.00,ESE,107,0.0,2.0,95,0.00,,,0.00,meteohub,2017-04-23 10:47:00,
2017-04-23 06:52:00,34.9,33.6,-100.00,ESE,108,0.0,2.0,95,0.00,,,0.00,meteohub,2017-04-23 10:52:00,
2017-04-23 06:57:00,35.2,34.0,-100.00,ESE,107,0.0,1.0,95,0.00,,,0.00,meteohub,2017-04-23 10:57:00,
2017-04-23 07:02:00,35.8,34.5,-100.00,ESE,108,0.0,1.0,95,0.00,,,0.00,meteohub,2017-04-23 11:02:00,
2017-04-23 07:07:00,36.1,34.9,-100.00,East,88,0.0,0.0,95,0.00,,,0.00,meteohub,2017-04-23 11:07:00,
2017-04-23 07:12:00,36.7,35.4,-100.00,East,80,0.0,1.0,95,0.00,,,0.00,meteohub,2017-04-23 11:12:00,